Starlink 11699

operational
NORAD ID: 63762 Int'l Des: 2025-089 Owner: SPXS Country: US Constellation: starlink
LEOCIRCULAR

Über Starlink 11699

Beschreibung wird geladen...

Live-Position

3D-Globus wird geladen...

Nächste Überflüge

Höhenverlauf

Altitude vs Time

uPlot chart will show altitude changes over time

Zweizeiliger Elementsatz

1 63762U 25089M 25307.49307998 .00146855 00000-0 11212-2 0 9992
2 63762 43.0055 333.3088 0003495 271.8864 88.1603 15.70976974 30282
Epoch: 3. Nov. 2025 • Age: 33 hours

Aktueller Status

Höhe 357.2 km
Geschwindigkeit 7.70 km/s
Subsatellitenpunkt -17.54°S, 58.48°W
Startdatum 29. Apr. 2025
Alter 0.5 years
Typ internet

Technische Details

Klassifizierung Payload
Masse 960.00 kg
Trockenmasse 910.00 kg
Gesamtmasse 960.00 kg
Länge 0.30 m
Durchmesser 4.10 m
Spannweite 29.00 m
Form Box + pan
Hersteller SPXS
Bus-Typ Starlink V2MD
Phasenstatus In Orbit
Besitzer/Staat SPXS/US

Große Konstellationen

Loading constellations...